Location: Quebec
(46.8000°N, 71.2500°W)
Time: 22:07:18
(UTC-04:00)

OTV 5 (USA 277) - Pass Details

Date: 15 October 2017
Orbit: 404 x 417 km, 43.0° (Epoch: 07 September)

Event Time Altitude Azimuth Distance (km) Brightness Sun altitude
Rises 18:43:01 0° 249° (WSW) 2,351 ? -8.6°
Reaches altitude 10° 18:45:12 10° 242° (WSW) 1,490 ? -8.9°
Maximum altitude 18:48:22 39° 172° (S) 640 ? -9.5°
Enters shadow 18:51:00 14° 105° (ESE) 1,289 ? -9.9°
